Omaha Offutt, NE

12:08 AM CDT on May 28, 2017 (GMT -0500)
Offutt Air Force Base

Weather History for KOFF - December, 2012

Change the Weather History Date:

Monday, December 3, 2012

  Actual Average Record
Temperature  
Mean Temperature 50 °F -  
Max Temperature 61 °F 41 °F 62 °F (1998)
Min Temperature 37 °F 24 °F 8 °F (2006)
Degree Days  
Heating Degree Days 15    
Moisture  
Dew Point 44 °F    
Average Humidity 84    
Maximum Humidity 100    
Minimum Humidity 40    
Precipitation  
Precipitation 0.01 in - - ()
Sea Level Pressure  
Sea Level Pressure 29.75 in    
Wind  
Wind Speed 7 mph (North)    
Max Wind Speed 21 mph    
Max Gust Speed 29 mph    
Visibility 6 miles    
Events Fog    
Averages and records for this station are not official NWS values.
T = Trace of Precipitation, MM = Missing Value Source: NWS Daily Summary

Daily Weather History Graph

Daily Weather History Graph

Search for Another Location

Airport or City:

Trip Planner

Search our weather history database for the weather conditions in past years. The results will help you decide how hot, cold, wet, or windy it might be!

Date:

Astronomy

Dec. 03, 2012 Rise Set
Actual Time 7:32 AM CST 4:55 PM CST
Civil Twilight 7:01 AM CST 5:25 PM CST
Nautical Twilight 6:26 AM CST 6:00 PM CST
Astronomical Twilight 5:53 AM CST 6:33 PM CST
Moon 9:44 PM CST (12/3) 10:54 AM CST (12/3)
Length of Visible Light 10h 24m
Length of Day
9h 23m
Waning Gibbous, 78% of the Moon is Illuminated
Dec 3
Waning Gibbous
Dec 6
Last Quarter
Dec 13
New
Dec 19
First Quarter
Dec 28
Full

Hourly Weather History & Observations

Time (CST) Temp. Windchill Dew Point Humidity Pressure Visibility Wind Dir Wind Speed Gust Speed Precip Events Conditions
12:55 AM 43.5 °F 38.9 °F 43.3 °F 99% 29.75 in 6.0 mi East 8.1 mph - N/A   Clear
1:55 AM 44.4 °F 40.0 °F 44.4 °F 100% 29.70 in 6.0 mi East 8.1 mph - N/A   Clear
2:55 AM 48.2 °F - 47.8 °F 99% 29.67 in 7.0 mi ESE 8.1 mph - N/A   Clear
3:55 AM 49.5 °F - 49.3 °F 99% 29.64 in 6.0 mi SE 6.9 mph - N/A   Clear
4:55 AM 47.5 °F - 47.5 °F 100% 29.62 in 6.0 mi SE 10.4 mph - N/A   Clear
5:55 AM 50.9 °F - 50.9 °F 100% 29.62 in 5.0 mi SE 8.1 mph - 0.01 in   Clear
6:46 AM 50.0 °F - 50.0 °F 100% 29.62 in 2.5 mi ESE 9.2 mph - N/A   Clear
6:55 AM 49.6 °F - 49.6 °F 100% 29.62 in 2.0 mi ESE 9.2 mph - N/A   Clear
7:06 AM 50.0 °F - 50.0 °F 100% 29.62 in 3.0 mi SE 6.9 mph - N/A   Clear
7:16 AM 50.0 °F - 50.0 °F 100% 29.65 in 2.5 mi Calm Calm - N/A   Clear
7:19 AM 50.0 °F - 50.0 °F 100% 29.65 in 1.8 mi East 3.5 mph - N/A   Clear
7:34 AM 46.4 °F - 46.4 °F 100% 29.64 in 0.8 mi Calm Calm - N/A   Clear
7:36 AM 46.4 °F 45.2 °F 46.4 °F 100% 29.64 in 0.2 mi East 3.5 mph - N/A Fog Fog
7:42 AM 46.4 °F 45.2 °F 46.4 °F 100% 29.64 in 0.2 mi East 3.5 mph - N/A Fog Fog
7:55 AM 44.6 °F 42.2 °F 44.6 °F 100% 29.64 in 0.2 mi East 4.6 mph - N/A Fog Fog
8:06 AM 46.4 °F 45.2 °F 46.4 °F 100% 29.63 in 0.2 mi ESE 3.5 mph - N/A Fog Fog
8:38 AM 48.2 °F - 48.2 °F 100% 29.64 in 0.2 mi Calm Calm - N/A Fog Fog
8:42 AM 50.0 °F - 50.0 °F 100% 29.64 in 0.5 mi Calm Calm - N/A Fog Fog
8:45 AM 50.0 °F - 50.0 °F 100% 29.64 in 1.0 mi Calm Calm - N/A   Clear
8:50 AM 50.0 °F - 50.0 °F 100% 29.64 in 3.0 mi Calm Calm - N/A   Clear
8:55 AM 50.9 °F - 50.9 °F 100% 29.65 in 5.0 mi Calm Calm - N/A   Clear
9:55 AM 57.9 °F - 57.7 °F 99% 29.67 in 10.0 mi WSW 16.1 mph 19.6 mph N/A   Mostly Cloudy
9:58 AM 57.2 °F - 57.2 °F 100% 29.67 in 10.0 mi West 12.7 mph 19.6 mph N/A   Scattered Clouds
10:19 AM 55.4 °F - 55.4 °F 100% 29.70 in 10.0 mi West 11.5 mph - N/A   Partly Cloudy
10:26 AM 55.4 °F - 55.4 °F 100% 29.69 in 10.0 mi West 11.5 mph - N/A   Partly Cloudy
10:55 AM 55.0 °F - 50.9 °F 86% 29.71 in 10.0 mi West 13.8 mph - N/A   Clear
11:55 AM 55.4 °F - 43.7 °F 65% 29.73 in 10.0 mi Variable 5.8 mph - N/A   Clear
12:55 PM 60.6 °F - 42.4 °F 51% 29.77 in 10.0 mi NNW 13.8 mph 21.9 mph N/A   Clear
1:55 PM 61.9 °F - 40.1 °F 45% 29.79 in 10.0 mi NW 20.7 mph 28.8 mph N/A   Clear
2:55 PM 61.3 °F - 38.8 °F 43% 29.83 in 10.0 mi NNW 10.4 mph - N/A   Clear
3:55 PM 59.4 °F - 35.1 °F 40% 29.88 in 10.0 mi NNW 10.4 mph 19.6 mph N/A   Clear
4:55 PM 52.3 °F - 34.0 °F 50% 29.93 in 10.0 mi NNW 4.6 mph - N/A   Clear
5:55 PM 53.1 °F - 29.5 °F 40% 29.96 in 10.0 mi NNW 6.9 mph - N/A   Clear
6:55 PM 45.9 °F 42.3 °F 30.0 °F 54% 29.99 in 10.0 mi WNW 6.9 mph - N/A   Clear
7:55 PM 43.9 °F 42.3 °F 30.2 °F 59% 30.02 in 10.0 mi West 3.5 mph - N/A   Clear
8:55 PM 43.3 °F 38.6 °F 28.2 °F 55% 30.05 in 10.0 mi NW 8.1 mph - N/A   Clear
9:55 PM 40.8 °F 35.6 °F 28.2 °F 61% 30.07 in 10.0 mi WNW 8.1 mph - N/A   Clear
10:55 PM 39.6 °F 33.5 °F 25.9 °F 58% 30.09 in 10.0 mi WNW 9.2 mph - N/A   Clear
11:55 PM 37.8 °F 31.8 °F 26.2 °F 63% 30.09 in 10.0 mi WNW 8.1 mph - N/A   Clear